This is the latest recevied weather packets stored in our database for station/object WX4FUN-13. If no packets are shown the sender has not sent any weather packets the latest 10 day(s).
| Time | Temp. | Humidity | Pressure | Rain* | Wind** | Luminosity | Snow |
|---|---|---|---|---|---|---|---|
| 1777846737 | 13.89° C | 33% | 1009.5 hPa | 0 mm | - | 102 W/m² | - |
| 1777846137 | 14.44° C | 32% | 1009.6 hPa | 0 mm | - | 215 W/m² | - |
| 1777845537 | 14.44° C | 33% | 1009.6 hPa | 0 mm | - | 248 W/m² | - |
| 1777844937 | 14.44° C | 33% | 1009.5 hPa | 0 mm | - | 296 W/m² | - |
| 1777844338 | 13.89° C | 35% | 1009.6 hPa | 0 mm | - | 336 W/m² | - |
| 1777843734 | 12.78° C | 37% | 1009.6 hPa | 0 mm | - | 403 W/m² | - |
| 1777843135 | 12.78° C | 37% | 1009.5 hPa | 0 mm | - | 121 W/m² | - |
| 1777842537 | 13.33° C | 36% | 1009.7 hPa | 0 mm | - | 107 W/m² | - |
| 1777841936 | 12.78° C | 37% | 1009.7 hPa | 0.25 mm | - | 531 W/m² | - |
| 1777841336 | 12.78° C | 38% | 1009.5 hPa | 0.25 mm | - | 141 W/m² | - |
| 1777840732 | 12.22° C | 38% | 1009.5 hPa | 0.25 mm | - | 250 W/m² | - |
| 1777840131 | 12.22° C | 38% | 1009.4 hPa | 0.25 mm | - | 389 W/m² | - |
| 1777839529 | 11.67° C | 39% | 1009.3 hPa | 0.51 mm | - | 274 W/m² | - |
| 1777838929 | 12.78° C | 37% | 1009.4 hPa | 0.51 mm | - | 190 W/m² | - |
| 1777838331 | 12.22° C | 37% | 1009.4 hPa | 0.25 mm | - | 237 W/m² | - |
| 1777837727 | 12.78° C | 37% | 1009.3 hPa | 0.25 mm | - | 208 W/m² | - |
| 1777837128 | 12.22° C | 38% | 1009.3 hPa | 0.25 mm | - | 268 W/m² | - |
| 1777836529 | 13.33° C | 36% | 1009.4 hPa | 0.25 mm | - | 205 W/m² | - |
| 1777835929 | 12.78° C | 36% | 1009.3 hPa | 0 mm | - | 288 W/m² | - |
| 1777835329 | 13.33° C | 36% | 1009.4 hPa | 0 mm | - | 322 W/m² | - |
| 1777834730 | 12.78° C | 37% | 1009.6 hPa | 0 mm | - | 932 W/m² | - |
| 1777834128 | 11.67° C | 39% | 1009.5 hPa | 0 mm | - | 261 W/m² | - |
| 1777833527 | 11.67° C | 38% | 1009.3 hPa | 0 mm | - | 272 W/m² | - |
| 1777832929 | 12.22° C | 39% | 1009.4 hPa | 0 mm | - | 264 W/m² | - |
| 1777832326 | 12.22° C | 38% | 1009.3 hPa | 0 mm | - | 234 W/m² | - |
* Rain latest hour (hover to see other rain measurements)
** Current wind speed in m/s (hover to see current wind gust speed)